• In Hungary
  • List of Countries
  • For 7 days
  • Water Temperature
  • Satellite Maps
  • Weather Map
  • News
  • Weather Widgets
  • user-avatar
    Login

    Hourly Weather Ostend

    Today, 25 September, Tuesday

    Time Temperature Precipitation Wind Pressure Humidity
    00:00 +9°C° 0 mm 2 mps 778 mmHg 70%
    01:00 +8°C° 0 mm 2 mps 778 mmHg 72%
    02:00 +8°C° 0 mm 2 mps 777 mmHg 73%
    03:00 +9°C° 0 mm 1 mps 777 mmHg 74%
    04:00 +9°C° 0 mm 1 mps 777 mmHg 75%
    05:00 +9°C° 0 mm 1 mps 777 mmHg 76%
    06:00 +9°C° 0 mm 1 mps 778 mmHg 78%
    07:00 +10°C° 0 mm 1 mps 778 mmHg 73%
    08:00 +12°C° 0 mm 2 mps 778 mmHg 68%
    09:00 +14°C° 0 mm 2 mps 778 mmHg 63%
    10:00 +15°C° 0 mm 2 mps 778 mmHg 58%
    11:00 +15°C° 0 mm 1 mps 778 mmHg 54%
    12:00 +16°C° 0 mm 1 mps 778 mmHg 50%
    13:00 +18°C° 0 mm 1 mps 777 mmHg 49%
    14:00 +18°C° 0 mm 1 mps 777 mmHg 49%
    15:00 +18°C° 0 mm 1 mps 776 mmHg 48%
    16:00 +16°C° 0 mm 1 mps 776 mmHg 52%
    17:00 +14°C° 0 mm 1 mps 776 mmHg 57%
    18:00 +13°C° 0 mm 1 mps 776 mmHg 61%
    19:00 +12°C° 0 mm 2 mps 776 mmHg 63%
    20:00 +12°C° 0 mm 2 mps 776 mmHg 65%
    21:00 +10°C° 0 mm 3 mps 776 mmHg 67%
    22:00 +10°C° 0 mm 3 mps 776 mmHg 68%
    23:00 +9°C° 0 mm 3 mps 776 mmHg 70%

    Tomorrow, 26 September, Wednesday

    Time Temperature Precipitation Wind Pressure Humidity
    00:00 +9°C° 0 mm 3 mps 776 mmHg 71%
    01:00 +9°C° 0 mm 3 mps 775 mmHg 72%
    02:00 +8°C° 0 mm 3 mps 775 mmHg 73%
    03:00 +8°C° 0 mm 3 mps 775 mmHg 74%
    04:00 +8°C° 0 mm 3 mps 775 mmHg 73%
    05:00 +7°C° 0 mm 4 mps 775 mmHg 72%
    06:00 +7°C° 0 mm 4 mps 774 mmHg 71%
    07:00 +10°C° 0 mm 4 mps 774 mmHg 64%
    08:00 +11°C° 0 mm 3 mps 775 mmHg 58%
    09:00 +13°C° 0 mm 3 mps 775 mmHg 51%
    10:00 +16°C° 0 mm 3 mps 774 mmHg 47%
    11:00 +17°C° 0 mm 3 mps 774 mmHg 42%
    12:00 +19°C° 0 mm 3 mps 774 mmHg 38%
    13:00 +19°C° 0 mm 3 mps 774 mmHg 37%
    14:00 +20°C° 0 mm 3 mps 773 mmHg 37%
    15:00 +20°C° 0 mm 3 mps 773 mmHg 36%
    16:00 +18°C° 0 mm 2 mps 773 mmHg 40%
    17:00 +16°C° 0 mm 2 mps 773 mmHg 45%
    18:00 +15°C° 0 mm 2 mps 773 mmHg 49%
    19:00 +14°C° 0 mm 2 mps 773 mmHg 50%
    20:00 +14°C° 0 mm 2 mps 773 mmHg 51%
    21:00 +13°C° 0 mm 2 mps 773 mmHg 53%
    22:00 +13°C° 0 mm 2 mps 773 mmHg 53%
    23:00 +13°C° 0 mm 2 mps 773 mmHg 54%

    Day after tomorrow, 27 September, Thursday

    Time Temperature Precipitation Wind Pressure Humidity
    00:00 +12°C° 0 mm 2 mps 773 mmHg 55%
    01:00 +12°C° 0 mm 2 mps 773 mmHg 56%
    02:00 +12°C° 0 mm 2 mps 773 mmHg 58%
    03:00 +10°C° 0 mm 2 mps 772 mmHg 59%
    04:00 +10°C° 0 mm 2 mps 772 mmHg 60%
    05:00 +9°C° 0 mm 2 mps 772 mmHg 62%
    06:00 +9°C° 0 mm 3 mps 772 mmHg 63%
    07:00 +11°C° 0 mm 3 mps 772 mmHg 59%
    08:00 +13°C° 0 mm 3 mps 772 mmHg 55%
    09:00 +16°C° 0 mm 3 mps 771 mmHg 51%
    10:00 +18°C° 0 mm 3 mps 771 mmHg 47%
    11:00 +19°C° 0 mm 3 mps 770 mmHg 43%
    12:00 +21°C° 0 mm 3 mps 770 mmHg 39%
    13:00 +21°C° 0 mm 3 mps 769 mmHg 40%
    14:00 +22°C° 0 mm 3 mps 769 mmHg 42%
    15:00 +22°C° 0 mm 3 mps 768 mmHg 43%
    16:00 +20°C° 0 mm 3 mps 768 mmHg 49%
    17:00 +19°C° 0 mm 3 mps 768 mmHg 56%
    18:00 +17°C° 0 mm 2 mps 768 mmHg 62%
    19:00 +16°C° 0 mm 3 mps 768 mmHg 65%
    20:00 +16°C° 0 mm 3 mps 768 mmHg 68%
    21:00 +14°C° 0 mm 3 mps 768 mmHg 71%
    22:00 +14°C° 0 mm 3 mps 767 mmHg 74%
    23:00 +14°C° 0 mm 3 mps 767 mmHg 76%

    28 September, Friday

    Time Temperature Precipitation Wind Pressure Humidity
    00:00 +14°C° 0 mm 3 mps 767 mmHg 79%
    01:00 +14°C° 0 mm 3 mps 767 mmHg 81%
    02:00 +13°C° 0 mm 3 mps 767 mmHg 83%
    03:00 +13°C° 0 mm 4 mps 766 mmHg 85%
    04:00 +13°C° 0 mm 4 mps 767 mmHg 85%
    05:00 +13°C° 0 mm 4 mps 767 mmHg 85%
    06:00 +13°C° 0 mm 5 mps 767 mmHg 85%
    07:00 +14°C° 0 mm 5 mps 767 mmHg 81%
    08:00 +15°C° 0 mm 6 mps 768 mmHg 77%
    09:00 +16°C° 0 mm 7 mps 768 mmHg 73%
    10:00 +17°C° 0 mm 7 mps 768 mmHg 71%
    11:00 +17°C° 0 mm 7 mps 768 mmHg 68%
    12:00 +18°C° 0 mm 7 mps 768 mmHg 66%
    13:00 +17°C° 0 mm 8 mps 768 mmHg 66%
    14:00 +17°C° 0 mm 8 mps 768 mmHg 65%
    15:00 +17°C° 0 mm 8 mps 768 mmHg 65%
    16:00 +15°C° 0 mm 8 mps 768 mmHg 65%
    17:00 +13°C° 0 mm 8 mps 769 mmHg 66%
    18:00 +12°C° 0 mm 8 mps 769 mmHg 66%
    19:00 +12°C° 0 mm 8 mps 770 mmHg 66%
    20:00 +11°C° 0 mm 7 mps 770 mmHg 65%
    21:00 +10°C° 0 mm 7 mps 771 mmHg 65%
    22:00 +10°C° 0 mm 7 mps 770 mmHg 67%
    23:00 +9°C° 0 mm 7 mps 770 mmHg 70%

    29 September, Saturday

    Time Temperature Precipitation Wind Pressure Humidity
    00:00 +9°C° 0 mm 7 mps 770 mmHg 72%
    01:00 +9°C° 0 mm 7 mps 770 mmHg 74%
    02:00 +8°C° 0 mm 7 mps 770 mmHg 77%
    03:00 +8°C° 0 mm 7 mps 770 mmHg 79%
    04:00 +6°C° 0 mm 7 mps 770 mmHg 81%
    05:00 +7°C° 0 mm 6 mps 770 mmHg 84%
    06:00 +7°C° 0 mm 6 mps 770 mmHg 86%
    07:00 +8°C° 0 mm 6 mps 770 mmHg 78%
    08:00 +9°C° 0 mm 6 mps 770 mmHg 70%
    09:00 +11°C° 0 mm 7 mps 770 mmHg 62%
    10:00 +12°C° 0 mm 7 mps 770 mmHg 58%
    11:00 +14°C° 0 mm 7 mps 770 mmHg 53%
    12:00 +15°C° 0 mm 7 mps 769 mmHg 48%
    13:00 +15°C° 0 mm 7 mps 769 mmHg 48%
    14:00 +16°C° 0 mm 7 mps 768 mmHg 48%
    15:00 +16°C° 0 mm 6 mps 768 mmHg 47%
    16:00 +14°C° 0 mm 6 mps 768 mmHg 50%
    17:00 +13°C° 0 mm 6 mps 768 mmHg 53%
    18:00 +11°C° 0 mm 6 mps 767 mmHg 56%
    19:00 +10°C° 0 mm 6 mps 767 mmHg 56%
    20:00 +10°C° 0 mm 6 mps 767 mmHg 57%
    21:00 +9°C° 0 mm 6 mps 767 mmHg 57%
    22:00 +8°C° 0 mm 6 mps 767 mmHg 58%
    23:00 +8°C° 0 mm 5 mps 766 mmHg 60%

    30 September, Sunday

    Time Temperature Precipitation Wind Pressure Humidity
    00:00 +7°C° 0 mm 5 mps 766 mmHg 62%
    01:00 +7°C° 0 mm 5 mps 766 mmHg 64%
    02:00 +7°C° 0 mm 4 mps 765 mmHg 67%
    03:00 +6°C° 0 mm 4 mps 765 mmHg 69%
    04:00 +6°C° 0 mm 4 mps 765 mmHg 71%
    05:00 +6°C° 0 mm 4 mps 765 mmHg 72%
    06:00 +6°C° 0 mm 4 mps 764 mmHg 74%
    07:00 +7°C° 0 mm 4 mps 764 mmHg 70%
    08:00 +9°C° 0 mm 5 mps 764 mmHg 67%
    09:00 +10°C° 0 mm 5 mps 764 mmHg 63%
    10:00 +13°C° 0 mm 5 mps 764 mmHg 59%
    11:00 +14°C° 0 mm 5 mps 764 mmHg 55%
    12:00 +16°C° 0 mm 5 mps 764 mmHg 51%
    13:00 +16°C° 0 mm 5 mps 764 mmHg 51%
    14:00 +16°C° 0 mm 5 mps 763 mmHg 52%
    15:00 +16°C° 0 mm 5 mps 763 mmHg 52%
    16:00 +15°C° 0 mm 6 mps 764 mmHg 55%
    17:00 +14°C° 0 mm 6 mps 764 mmHg 57%
    18:00 +13°C° 0 mm 6 mps 764 mmHg 60%
    19:00 +13°C° 0 mm 6 mps 764 mmHg 62%
    20:00 +13°C° 0 mm 6 mps 765 mmHg 63%
    21:00 +11°C° 0 mm 6 mps 765 mmHg 65%
    22:00 +11°C° 0 mm 6 mps 765 mmHg 67%
    23:00 +11°C° 0 mm 6 mps 765 mmHg 70%
    Show more